TimeCST,TemperatureF,Dew PointF,Humidity,Sea Level PressureIn,VisibilityMPH,Wind Direction,Wind SpeedMPH,Gust SpeedMPH,PrecipitationIn,Events,Conditions,WindDirDegrees,DateUTC
12:15 AM,31.6,25.3,78,30.19,10.0,NW,8.1,-,N/A,,Clear,320,2013-11-26 06:15:00
12:35 AM,31.6,25.3,78,30.19,10.0,NW,6.9,-,N/A,,Clear,320,2013-11-26 06:35:00
12:55 AM,31.6,25.5,78,30.19,10.0,NW,6.9,-,N/A,,Clear,320,2013-11-26 06:55:00
1:15 AM,30.9,25.3,80,30.19,10.0,NW,6.9,-,N/A,,Clear,310,2013-11-26 07:15:00
1:35 AM,30.6,25.5,82,30.19,10.0,NW,5.8,-,N/A,,Clear,320,2013-11-26 07:35:00
1:55 AM,30.0,25.2,82,30.20,10.0,WNW,5.8,-,N/A,,Clear,300,2013-11-26 07:55:00
2:15 AM,29.8,25.0,82,30.20,10.0,WNW,5.8,-,N/A,,Clear,300,2013-11-26 08:15:00
2:35 AM,28.6,24.4,84,30.20,10.0,NW,5.8,-,N/A,,Clear,310,2013-11-26 08:35:00
2:55 AM,28.4,24.1,84,30.19,10.0,WNW,5.8,-,N/A,,Clear,300,2013-11-26 08:55:00
3:15 AM,27.9,23.9,85,30.19,10.0,NW,5.8,-,N/A,,Clear,320,2013-11-26 09:15:00
3:35 AM,28.8,24.3,83,30.19,10.0,NNW,9.2,-,N/A,,Clear,330,2013-11-26 09:35:00
3:55 AM,28.6,24.1,83,30.18,10.0,NNW,10.4,-,N/A,,Clear,330,2013-11-26 09:55:00
4:15 AM,28.8,24.1,83,30.18,10.0,NW,10.4,-,N/A,,Clear,320,2013-11-26 10:15:00
4:35 AM,28.2,23.9,84,30.19,10.0,NNW,11.5,-,N/A,,Clear,330,2013-11-26 10:35:00
4:55 AM,28.2,23.7,83,30.20,10.0,NNW,9.2,-,N/A,,Clear,340,2013-11-26 10:55:00
5:15 AM,27.5,23.2,84,30.21,10.0,NNW,11.5,-,N/A,,Clear,330,2013-11-26 11:15:00
5:35 AM,27.5,23.0,83,30.22,10.0,NNW,10.4,-,N/A,,Clear,330,2013-11-26 11:35:00
5:55 AM,27.1,22.8,84,30.22,10.0,NNW,8.1,-,N/A,,Clear,330,2013-11-26 11:55:00
6:15 AM,26.4,22.5,85,30.23,10.0,NNW,9.2,-,N/A,,Clear,330,2013-11-26 12:15:00
6:35 AM,26.2,22.5,86,30.24,10.0,NW,9.2,-,N/A,,Scattered Clouds,320,2013-11-26 12:35:00
6:55 AM,26.4,22.6,86,30.26,10.0,NW,8.1,-,N/A,,Overcast,320,2013-11-26 12:55:00
7:15 AM,26.2,22.5,86,30.26,10.0,NW,9.2,-,N/A,,Overcast,310,2013-11-26 13:15:00
7:35 AM,26.1,22.6,87,30.26,10.0,NW,9.2,-,N/A,,Overcast,310,2013-11-26 13:35:00
7:55 AM,28.4,23.4,81,30.27,10.0,NNW,12.7,-,N/A,,Overcast,330,2013-11-26 13:55:00
8:15 AM,29.3,23.9,80,30.28,10.0,NNW,15.0,-,N/A,,Overcast,340,2013-11-26 14:15:00
8:35 AM,29.8,24.1,79,30.28,10.0,NNW,15.0,21.9,N/A,,Overcast,340,2013-11-26 14:35:00
8:55 AM,30.2,24.4,79,30.29,10.0,North,15.0,19.6,N/A,,Overcast,350,2013-11-26 14:55:00
9:15 AM,31.5,24.4,75,30.30,10.0,North,16.1,19.6,N/A,,Mostly Cloudy,350,2013-11-26 15:15:00
9:35 AM,32.0,24.4,74,30.30,10.0,North,13.8,24.2,N/A,,Mostly Cloudy,350,2013-11-26 15:35:00
9:55 AM,32.0,25.0,75,30.31,10.0,North,17.3,-,N/A,,Mostly Cloudy,360,2013-11-26 15:55:00
10:15 AM,32.2,24.6,74,30.32,10.0,North,18.4,23.0,N/A,,Mostly Cloudy,350,2013-11-26 16:15:00
10:35 AM,32.2,22.5,67,30.32,10.0,North,20.7,32.2,N/A,,Mostly Cloudy,350,2013-11-26 16:35:00
10:55 AM,33.1,20.7,60,30.32,10.0,North,23.0,32.2,N/A,,Mostly Cloudy,360,2013-11-26 16:55:00
11:15 AM,34.0,21.4,60,30.32,10.0,NNW,20.7,25.3,N/A,,Scattered Clouds,340,2013-11-26 17:15:00
11:35 AM,33.3,20.5,59,30.32,10.0,North,20.7,28.8,N/A,,Scattered Clouds,350,2013-11-26 17:35:00
11:55 AM,33.4,19.2,56,30.32,10.0,NNW,23.0,29.9,N/A,,Scattered Clouds,330,2013-11-26 17:55:00
12:15 PM,33.3,16.9,51,30.31,10.0,NNW,24.2,29.9,N/A,,Scattered Clouds,330,2013-11-26 18:15:00
12:35 PM,32.4,14.7,48,30.31,10.0,NNW,26.5,31.1,N/A,,Clear,340,2013-11-26 18:35:00
12:55 PM,32.2,15.1,49,30.31,10.0,NNW,23.0,29.9,N/A,,Clear,340,2013-11-26 18:55:00
1:15 PM,32.5,13.1,45,30.32,10.0,NNW,24.2,32.2,N/A,,Clear,330,2013-11-26 19:15:00
1:35 PM,32.0,10.2,40,30.32,10.0,North,25.3,33.4,N/A,,Clear,360,2013-11-26 19:35:00
1:55 PM,31.1,10.0,41,30.32,10.0,NNW,20.7,29.9,N/A,,Clear,340,2013-11-26 19:55:00
2:15 PM,30.2,9.7,42,30.32,10.0,NNW,24.2,31.1,N/A,,Clear,340,2013-11-26 20:15:00
2:35 PM,29.7,9.5,43,30.31,10.0,NNW,25.3,31.1,N/A,,Clear,340,2013-11-26 20:35:00
2:55 PM,29.3,8.6,42,30.32,10.0,NNW,20.7,26.5,N/A,,Clear,340,2013-11-26 20:55:00
3:15 PM,29.3,8.4,42,30.33,10.0,NNW,21.9,26.5,N/A,,Clear,340,2013-11-26 21:15:00
3:35 PM,28.9,7.9,41,30.33,10.0,North,20.7,28.8,N/A,,Clear,350,2013-11-26 21:35:00
3:55 PM,28.4,7.5,41,30.33,10.0,North,23.0,29.9,N/A,,Clear,360,2013-11-26 21:55:00
4:15 PM,28.0,7.5,42,30.34,10.0,North,18.4,29.9,N/A,,Clear,350,2013-11-26 22:15:00
4:35 PM,27.3,7.5,43,30.35,10.0,North,16.1,25.3,N/A,,Clear,350,2013-11-26 22:35:00
4:55 PM,26.6,7.7,45,30.36,10.0,North,16.1,23.0,N/A,,Clear,360,2013-11-26 22:55:00
5:15 PM,25.7,8.1,47,30.37,10.0,North,11.5,18.4,N/A,,Clear,350,2013-11-26 23:15:00
5:35 PM,24.6,8.6,51,30.37,10.0,North,10.4,-,N/A,,Clear,350,2013-11-26 23:35:00
5:55 PM,24.4,8.6,51,30.37,10.0,North,11.5,-,N/A,,Clear,350,2013-11-26 23:55:00
6:15 PM,23.9,8.6,52,30.38,10.0,North,8.1,-,N/A,,Clear,360,2013-11-27 00:15:00
6:35 PM,23.0,8.6,54,30.38,10.0,North,9.2,-,N/A,,Clear,350,2013-11-27 00:35:00
6:55 PM,22.5,8.6,55,30.40,10.0,North,9.2,-,N/A,,Clear,350,2013-11-27 00:55:00
7:15 PM,21.9,9.1,58,30.40,10.0,NNW,9.2,-,N/A,,Clear,340,2013-11-27 01:15:00
7:35 PM,21.2,9.5,61,30.40,10.0,NNW,8.1,-,N/A,,Clear,330,2013-11-27 01:35:00
7:55 PM,21.6,9.0,58,30.41,10.0,NNW,8.1,-,N/A,,Clear,330,2013-11-27 01:55:00
8:15 PM,21.2,9.1,60,30.41,10.0,NNW,9.2,-,N/A,,Clear,330,2013-11-27 02:15:00
8:35 PM,20.5,9.1,62,30.40,10.0,NW,9.2,-,N/A,,Clear,320,2013-11-27 02:35:00
8:55 PM,20.1,8.8,62,30.40,10.0,NNW,9.2,-,N/A,,Clear,330,2013-11-27 02:55:00
9:15 PM,19.6,9.1,64,30.40,10.0,NNW,10.4,-,N/A,,Clear,330,2013-11-27 03:15:00
9:35 PM,20.1,8.6,61,30.41,10.0,NNW,8.1,-,N/A,,Clear,340,2013-11-27 03:35:00
9:55 PM,19.4,8.8,63,30.41,10.0,NNW,6.9,-,N/A,,Clear,330,2013-11-27 03:55:00
10:15 PM,19.2,9.0,64,30.40,10.0,North,6.9,-,N/A,,Clear,350,2013-11-27 04:15:00
10:35 PM,19.2,9.1,65,30.41,10.0,North,6.9,-,N/A,,Clear,350,2013-11-27 04:35:00
10:55 PM,18.5,9.3,67,30.41,10.0,NW,4.6,-,N/A,,Clear,320,2013-11-27 04:55:00
11:15 PM,17.6,9.3,70,30.41,10.0,NW,4.6,-,N/A,,Clear,310,2013-11-27 05:15:00
11:35 PM,16.0,8.8,73,30.41,10.0,NW,6.9,-,N/A,,Clear,310,2013-11-27 05:35:00
11:55 PM,15.6,9.0,75,30.41,10.0,WNW,6.9,-,N/A,,Clear,300,2013-11-27 05:55:00